Regional Weather Roundup
Issued by NWS Newport/Morehead, NC

Current Version | Previous Version | Graphics & Text | Print | Product List | Glossary On
Versions: 1 2 3 4 5 6 7 8 9 10 11 12 13 14 15 16 17 18 19 20 21 22 23 24 25 26 27 28 29 30 31 32 33 34 35 36 37 38 39 40 41 42 43 44 45 46 47 48 49 50
000 ASUS42 KMHX 251513 RWRMHX WEATHER ROUNDUP FOR EASTERN NORTH CAROLINA NATIONAL WEATHER SERVICE NEWPORT/MOREHEAD CITY NC 1100 AM EDT SAT MAR 25 2017 NOTE: "FAIR" INDICATES FEW OR NO CLOUDS BELOW 12,000 FEET WITH NO SIGNIFICANT WEATHER AND/OR OBSTRUCTIONS TO VISIBILITY NCZ015>017-031-032-045>047-102-103-251600- NORTH COAST CITY SKY/WX TMP DP RH WIND PRES REMARKS EDENTON NOT AVBL ELIZABETH CITY CLOUDY 68 53 58 SW14 30.33S KITTY HAWK NOT AVBL MANTEO CLOUDY 66 50 55 W14 30.34F $$ NCZ045>047-081-094-103-104-251600- CENTRAL COAST CITY SKY/WX TMP DP RH WIND PRES REMARKS FRISCO CLOUDY 70 51 51 SW9 30.37S $$ NCZ095-097-098-100-101-251600- SOUTHERN COAST CITY SKY/WX TMP DP RH WIND PRES REMARKS BEAUFORT MOSUNNY 71 55 56 SW10 30.37F CEDAR ISLAND NOT AVBL JACKSONVILLE MOSUNNY 72 51 47 S10G16 30.36S PINEY ISLAND MOSUNNY N/A N/A N/A SW10 30.36F WILMINGTON CLOUDY 70 53 54 SW9 30.37S $$ NCZ011>013-027>030-043-044-078>080-089-090>093-098-251600- COASTAL PLAIN CITY SKY/WX TMP DP RH WIND PRES REMARKS AHOSKIE NOT AVBL CLINTON SUNNY 70 55 59 SW8 30.36S ELIZABETHTOWN MOSUNNY 69 55 60 S8 30.36S GOLDSBORO SUNNY 71 55 58 SW16 30.33F GREENVILLE SUNNY 70 52 52 W12 30.34F HAVELOCK SUNNY 72 51 47 SW13 30.27F KENANSVILLE SUNNY 72 54 53 SW8G21 30.35F KINSTON SUNNY 72 54 53 SW15 30.35F NEW BERN SUNNY 73 52 47 SW8 30.37F RICHLANDS MOSUNNY 71 54 54 SW14G20 30.36F ROCKY MOUNT PTSUNNY 69 54 58 SW12 30.33F WASHINGTON SUNNY 69 52 55 SW12G17 30.34F WHITEVILLE CLOUDY 67 55 64 S7 30.36F $$ AMZ130-135-150-152-154-156-158-170-250-252-270-ANZ085-086-088-633-658-670-251600- MARINE OBSERVATIONS STATION/POSITION TIME TEMP WIND PRES WAVE SWELL AIR SEA DIR/SP/G HT/PER HT/PER (UTC) (F) (DEG/KT/KT) (MB) (FT/S) (FT/S) CHESAPEAKE LIGHT NOT AVBL 64 E VA BEACH 1450 53 49 220/ 10/ 12 1026.7 3/ 5 2/ 5 DUCK 1448 62 47 240/ 9/ 14 1026.7 2 E DUCK 1500 48 N/A 1/ 7 OREGON INLET 1436 56 55 190/ 9/ 10 1027.8 13E OREGON INLT 1448 49 N/A 2/ 5 2/ 5 HATTERAS CG 1448 67 56 230/ 6/ 11 1028.1 DIAMOND BUOY 1450 69 76 270/ 14/ 17 1028.5 3/ 5 2/11 CAPE LOOKOUT 1500 70 230/ 8/ 11 1028.3 BEAUFORT LAB 1448 66 52 200/ 8/ 8 1027.7 30 SE NEW RVR IN 1408 68 200/ 4/ 6 1028.8 30 SE NEW RVR IN 1443 65 N/A 3/ 7 2/11 27 SE WRIGHTSVLE 1408 65 62 180/ 2/ 6 1028.2 5 SE WRIGHTSVLE 1408 61 56 180/ 2/ 4 1028.5 225 S CAPE HAT 1450 65 73 90/ 12/ 14 1029.6 5/ 8 3/ 8 41 SE CHARLESTON 1450 70 70 120/ 8/ 10 1027.8 4/ 8 3/ 8 $$

USA.gov is the U.S. government's official web portal to all federal, state and local government web resources and services.